GEC8386 EDDF-RJAA

Flight info

Callsign GEC8386
Flight time N/A
Altitude 31000
Route SULUS4D SULUS Z650 VEMUT DCT ETVIS DCT BUDEX DCT TEGRI DCT UDROS UM859 EVKAM/N0484F330 UM859 KARDE UL851 TBN UR317 REBLO DCT TABAS DCT MATAL T916 BALUN/K0898F330 T916 DILNA/K0893F350 T916 PIGAL M610 RULAD/K0891S1070 A343 POSOT B215 FKG W188 LIKMI W270 POPIB/K0889S1130 W270 DKO W69 HUR B339 LADIX W34 VAPGU W100 ORAVA W201 UNSEK A326 DONVO G597 AGAVO/N0485F370 Y644 GONAV/N0486F390 Y644 EGOBA Y697 LANAT Y51 SAMON Y517 ESKAS Y303 ENTAK/N0491F400 Y30 SWAMP
Aircraft MD11/H-SDE1E2E3FGHIJ2J3J4J5M1RWXY/LB1D1

Departure

Time 2026-04-14 04:21
Airport Frankfurt Main Airport (EDDF)

Arrival

Time N/A
Airport Narita International Airport (RJAA)
Time Latitude Longitude Altitude Speed Heading
2026-04-14 04:19 50.03476 8.52891 341 ft 20 kts 249°
2026-04-14 04:19 50.03428 8.52706 340 ft 16 kts 248°
2026-04-14 04:19 50.03369 8.52599 339 ft 10 kts 200°
2026-04-14 04:20 50.03349 8.52594 338 ft 0 kts 183°
2026-04-14 04:20 50.03344 8.52594 338 ft 3 kts 182°
2026-04-14 04:20 50.03140 8.52595 334 ft 59 kts 180°
2026-04-14 04:21 50.02477 8.52602 329 ft 119 kts 180°
2026-04-14 04:21 50.01431 8.52611 332 ft 168 kts 180°
2026-04-14 04:21 50.00050 8.52622 386 ft 207 kts 180°
2026-04-14 04:21 49.98565 8.52695 988 ft 207 kts 178°
2026-04-14 04:22 49.97020 8.52904 1375 ft 223 kts 177°
2026-04-14 04:22 49.95483 8.53022 2102 ft 225 kts 181°
2026-04-14 04:22 49.93877 8.53068 2895 ft 227 kts 180°
2026-04-14 04:22 49.92284 8.53136 3603 ft 229 kts 179°
2026-04-14 04:23 49.90573 8.53253 3874 ft 249 kts 178°
2026-04-14 04:23 49.88775 8.53396 4589 ft 244 kts 178°
2026-04-14 04:23 49.86995 8.53532 5228 ft 249 kts 179°
2026-04-14 04:23 49.85222 8.53653 5968 ft 242 kts 179°
2026-04-14 04:24 49.83460 8.53770 6450 ft 253 kts 179°
2026-04-14 04:24 49.81699 8.53891 7240 ft 244 kts 179°
2026-04-14 04:24 49.79945 8.54153 7625 ft 257 kts 161°
2026-04-14 04:24 49.78455 8.55638 8199 ft 254 kts 126°
2026-04-14 04:25 49.77689 8.58146 8501 ft 267 kts 95°
2026-04-14 04:25 49.77594 8.61114 8785 ft 283 kts 90°
2026-04-14 04:25 49.77610 8.64303 8951 ft 307 kts 89°
2026-04-14 04:25 49.77605 8.67710 9347 ft 321 kts 91°
2026-04-14 04:26 49.77554 8.71143 10130 ft 322 kts 92°
2026-04-14 04:26 49.77464 8.74659 10628 ft 334 kts 93°
2026-04-14 04:26 49.77334 8.78392 10835 ft 354 kts 94°
2026-04-14 04:26 49.77177 8.82352 11073 ft 374 kts 94°
2026-04-14 04:27 49.77013 8.86519 11346 ft 392 kts 94°
2026-04-14 04:27 49.76846 8.91048 11537 ft 414 kts 94°
2026-04-14 04:27 49.76679 8.95777 12135 ft 423 kts 94°
2026-04-14 04:27 49.76513 9.00554 13052 ft 424 kts 94°
2026-04-14 04:28 49.76344 9.05317 13841 ft 428 kts 94°
2026-04-14 04:28 49.76029 9.10034 14559 ft 431 kts 100°
2026-04-14 04:28 49.75406 9.14591 15281 ft 434 kts 104°
2026-04-14 04:28 49.74650 9.19177 15938 ft 439 kts 105°
2026-04-14 04:29 49.73877 9.23782 16674 ft 441 kts 105°
2026-04-14 04:29 49.73111 9.28393 17342 ft 445 kts 105°
2026-04-14 04:29 49.72330 9.33133 17995 ft 449 kts 105°
2026-04-14 04:29 49.71554 9.37840 18646 ft 453 kts 105°
2026-04-14 04:30 49.70761 9.42637 19275 ft 456 kts 105°
2026-04-14 04:30 49.69982 9.47401 19931 ft 459 kts 105°
2026-04-14 04:30 49.69186 9.52257 20525 ft 463 kts 105°
2026-04-14 04:30 49.68381 9.57146 21124 ft 467 kts 105°
2026-04-14 04:31 49.67707 9.62162 21728 ft 471 kts 98°
2026-04-14 04:31 49.67483 9.67275 22293 ft 476 kts 90°
2026-04-14 04:31 49.68594 9.77621 23464 ft 484 kts 76°
2026-04-14 04:32 49.69553 9.82783 24032 ft 489 kts 75°
2026-04-14 04:32 49.70529 9.87942 24529 ft 493 kts 75°
2026-04-14 04:32 49.71664 9.92983 25082 ft 497 kts 69°
2026-04-14 04:32 49.73256 9.97869 25573 ft 503 kts 60°
2026-04-14 04:33 49.75224 10.02448 26108 ft 507 kts 56°
2026-04-14 04:33 49.77317 10.06938 26691 ft 510 kts 55°
2026-04-14 04:33 49.79401 10.11381 27348 ft 510 kts 56°
2026-04-14 04:33 49.81458 10.15855 28190 ft 506 kts 56°
2026-04-14 04:34 49.83508 10.20358 28962 ft 504 kts 56°
2026-04-14 04:34 49.85544 10.24861 29727 ft 500 kts 56°
2026-04-14 04:34 49.87543 10.29286 30530 ft 496 kts 56°
2026-04-14 04:34 49.89560 10.33742 31100 ft 497 kts 56°
2026-04-14 04:35 49.93700 10.42878 31197 ft 490 kts 56°
2026-04-14 04:35 49.97805 10.51910 31263 ft 492 kts 56°
2026-04-14 04:36 50.01730 10.61199 31202 ft 489 kts 64°
2026-04-14 04:36 50.04070 10.70932 31241 ft 485 kts 79°